Flag for Switzerland Weather past 2 weeks in Martigny, Valais, Switzerland

Now
67 °F

Mild.


Feels Like: 67 °F
Forecast: 65 / 76 °F
Wind: 3 mph from Southeast

Location: Sion

Current Time: Sep 1, 2015 at 1:59:55 AM

Latest Report: Sep 1, 2015 at 1:00 AM


Visibility: N/A

Pressure: 29.94 "Hg

Humidity: 66%

Dew point: 55 °F

Location of MartignyLocation

Historic Weather in Martigny — Graph

°F

Martigny temperature yesterday

Maximum temperature yesterday: 90 °F (at 4:00 PM)
Minimum temperature yesterday: 61 °F (at 7:00 AM)
Average temperature yesterday: 75 °F

Past Weeks' High & Low Weather Summary

 TemperatureHumidityPressure
High90 °F (Aug 30, 3:00 PM)98% (Aug 25, 5:00 AM)30.26 "Hg (Aug 25, 5:00 AM)
Low52 °F (Aug 20, 4:00 AM)20% (Aug 31, 4:00 PM)29.71 "Hg (Aug 24, 3:00 PM)
Average68 °F64%30.01 "Hg
* Reported Midnight between Aug 16 and Aug 17 — Midnight between Aug 31 and Sep 1, Martigny, Weather by CustomWeather, © 2015

Note: Actual official high and low records may vary slightly from our data, if they occured in-between our weather recording intervals... More about our weather records

Advertising

Martigny weather history for previous 24 hours

 ConditionsComfort  
Time TempWeatherWind HumidityBarometerVisibility
12:00 AM
Tue, Sep 1
70 °FMild.1 mph58%29.93 "HgN/A
10:00 PM
Mon, Aug 31
75 °FMild.5 mph45%29.90 "HgN/A
9:00 PM77 °FWarm.3 mph47%29.88 "HgN/A
8:00 PM79 °FWarm.5 mph44%29.86 "HgN/A
7:00 PM84 °FPleasantly warm.7 mph39%29.85 "HgN/A
6:00 PM87 °FPleasantly warm.9 mph33%29.84 "HgN/A
5:00 PM90 °FSunny.3 mph30%29.84 "Hg19 mi
4:00 PM90 °FHot.7 mph20%29.85 "HgN/A
3:00 PM88 °FHot.1 mph21%29.89 "HgN/A
2:00 PM88 °FSunny.2 mph23%29.91 "Hg19 mi
1:00 PM83 °FPleasantly warm.2 mph26%29.96 "HgN/A
12:00 PM79 °FPleasantly warm.2 mph27%30.00 "HgN/A
11:00 AM76 °FSunny.5 mph35%30.03 "Hg19 mi
10:00 AM71 °FMild.6 mph40%30.06 "HgN/A
9:00 AM67 °FMild.6 mph45%30.09 "HgN/A
8:00 AM62 °FPassing clouds.3 mph63%30.11 "Hg19 mi
7:00 AM61 °FCool.5 mph63%30.11 "HgN/A
6:00 AM63 °FMild.7 mph60%30.10 "HgN/A
5:00 AM64 °FClear.6 mph60%30.10 "Hg12 mi
4:00 AM65 °FMild.5 mph62%30.10 "HgN/A
3:00 AM66 °FMild.5 mph65%30.09 "HgN/A
2:00 AM68 °FClear.5 mph61%30.08 "Hg12 mi
1:00 AM69 °FMild.3 mph61%30.08 "HgN/A
Weather by CustomWeather, © 2015

See weather overviewHow to use our weather pages